This demonstration page uses our WeatherBlox Daily Observations layout. Learn more.

Left ArrowRight Arrow

39.51506, -84.39828

Hourly Observations for June 24, 2017

Temp ( °F °C ) Dew Point ( °F °C ) Humidity (%) Winds ( mph kmh ) Pressure ( in mb ) Visibility ( mi km ) Precip ( " mm )
12:15 am 00:15 Clear 67 19.5 63 17 86 86 SW 3 6 29.85 1011 10 16 N/A
12:35 am 00:35 Clear 67 19.5 63 17.1 86 86 N N/A 29.85 1011 10 16 N/A
12:55 am 00:55 Clear 67 19.5 63 17.1 86 86 S 3 6 29.85 1011 10 16 N/A
1:15 am 01:15 Clear 67 19.5 63 17.1 86 86 N N/A 29.85 1011 10 16 N/A
1:35 am 01:35 Clear 66 18.7 61 16.3 86 86 N N/A 29.85 1011 10 16 N/A
1:55 am 01:55 Clear 67 19.5 63 17.1 86 86 N N/A 29.85 1011 10 16 N/A
2:15 am 02:15 Clear 67 19.5 63 17 86 86 N N/A 29.85 1011 10 16 N/A
2:35 am 02:35 Clear 64 18 60 15.6 86 86 N N/A 29.85 1011 10 16 N/A
2:55 am 02:55 Clear 64 18 60 15.7 87 87 S 5 7 29.85 1011 10 16 N/A
3:15 am 03:15 Clear 64 18 60 15.6 86 86 S 5 7 29.85 1011 10 16 N/A
3:35 am 03:35 Clear 64 18 60 15.8 87 87 S 3 6 29.85 1011 10 16 N/A
3:55 am 03:55 Clear 64 17.7 60 15.4 86 86 S 5 7 29.85 1011 10 16 N/A
4:15 am 04:15 Clear 63 17.1 59 14.9 87 87 SW 5 7 29.85 1011 10 16 N/A
4:35 am 04:35 Clear 62 16.7 58 14.5 87 87 SSW 3 6 29.85 1011 7 11 N/A
4:55 am 04:55 Clear with Mist and Fog 63 17 59 14.8 87 87 N N/A 29.85 1011 3 5 N/A
5:15 am 05:15 Clear with Mist and Fog 62 16.6 58 14.3 86 86 SSW 5 7 29.88 1012 4 6 N/A
5:35 am 05:35 Clear with Mist and Fog 62 16.6 58 14.5 88 88 SW 5 7 29.88 1012 5 8 N/A
5:55 am 05:55 Clear 62 16.6 58 14.5 88 88 SSW 3 6 29.88 1012 7 11 N/A
6:15 am 06:15 Sunny 62 16.4 58 14.3 87 87 SSW 5 7 29.88 1012 10 16 N/A
6:35 am 06:35 Sunny 61 16.2 57 14 87 87 SW 3 6 29.88 1012 10 16 N/A
6:55 am 06:55 Sunny 62 16.6 58 14.5 88 88 N N/A 29.88 1012 10 16 N/A
7:15 am 07:15 Sunny 64 17.8 60 15.4 86 86 N N/A 29.91 1013 10 16 N/A
7:35 am 07:35 Sunny 67 19.3 62 16.4 83 83 N N/A 29.91 1013 10 16 N/A
7:55 am 07:55 Sunny 69 20.6 63 17.4 82 82 W 3 6 29.91 1013 10 16 N/A
8:15 am 08:15 Sunny 69 20.8 64 17.5 82 82 W 3 6 29.91 1013 10 16 N/A
8:35 am 08:35 Sunny 69 20.8 63 17.2 80 80 WNW 6 9 29.94 1014 10 16 N/A
8:55 am 08:55 Sunny 69 20.8 63 17 79 79 WNW 6 9 29.94 1014 10 16 N/A
9:15 am 09:15 Sunny 69 20.8 63 17 79 79 NW 5 7 29.94 1014 10 16 N/A
9:35 am 09:35 Sunny 69 20.8 62 16.5 77 77 WNW 6 9 29.94 1014 10 16 N/A
9:55 am 09:55 Sunny 72 22 63 17.4 75 75 W 6 9 29.94 1014 10 16 N/A
10:15 am 10:15 Sunny 74 23.6 65 18.4 73 73 W 7 11 29.97 1015 10 16 N/A
10:35 am 10:35 Sunny 74 23.6 64 17.5 69 69 W 3 6 29.97 1015 10 16 N/A
10:55 am 10:55 Partly Cloudy 74 23.5 63 17.4 69 69 W 5 7 29.97 1015 10 16 N/A
11:15 am 11:15 Partly Cloudy 74 23.6 63 17.2 67 67 WSW 5 7 29.97 1015 10 16 N/A
11:35 am 11:35 Partly Cloudy 74 23.6 63 17 67 67 WSW 9 15 29.97 1015 10 16 N/A
11:55 am 11:55 Partly Cloudy 74 23.6 61 16.1 63 63 WSW 5 7 29.97 1015 10 16 N/A
12:15 pm 12:15 Partly Cloudy 76 24.3 62 16.6 62 62 WSW 9 15 29.97 1015 10 16 N/A
12:35 pm 12:35 Partly Cloudy 77 25.1 61 16.2 58 58 WSW 8 13 29.97 1015 10 16 N/A
12:55 pm 12:55 Partly Cloudy 74 23.6 59 15.1 59 59 WSW 9 15 29.97 1015 10 16 N/A
1:15 pm 13:15 Partly Cloudy 77 25.1 61 16 57 57 W 9 15 29.97 1015 10 16 N/A
1:35 pm 13:35 Partly Cloudy 77 25.1 62 16.5 59 59 WSW 9 15 29.97 1015 10 16 N/A
1:55 pm 13:55 Mostly Cloudy 77 25.2 59 14.9 53 53 WSW 13 20 29.97 1015 10 16 N/A
2:15 pm 14:15 Mostly Cloudy 77 25.1 58 14.5 52 52 WSW 13 20 29.97 1015 10 16 N/A
2:35 pm 14:35 Mostly Cloudy 77 25.1 56 13.6 49 49 W 10 17 30.00 1016 10 16 N/A
2:55 pm 14:55 Partly Cloudy 78 25.7 56 13.3 46 46 WSW 13 20 30.00 1016 10 16 N/A
3:15 pm 15:15 Sunny 80 26.5 55 13 43 43 WSW 13 20 29.97 1015 10 16 N/A
3:35 pm 15:35 Partly Cloudy 80 26.5 58 14.2 47 47 WSW 12 19 29.97 1015 10 16 N/A
3:55 pm 15:55 Partly Cloudy 80 26.5 55 12.8 43 43 W 10 17 29.97 1015 10 16 N/A
4:15 pm 16:15 Partly Cloudy 80 26.5 54 12.4 42 42 WSW 14 22 29.97 1015 10 16 N/A
4:35 pm 16:35 Partly Cloudy 80 26.5 53 11.7 40 40 WNW 10 17 29.97 1015 10 16 N/A
4:55 pm 16:55 Partly Cloudy 80 26.5 53 11.4 39 39 W 14 22 29.97 1015 10 16 N/A
5:15 pm 17:15 Partly Cloudy 80 26.5 52 11 38 38 W 10 17 29.97 1015 10 16 N/A
5:35 pm 17:35 Partly Cloudy 79 26.3 51 10.4 37 37 WSW 14 22 29.97 1015 10 16 N/A
5:55 pm 17:55 Partly Cloudy 78 25.6 50 10.1 38 38 W 12 19 29.97 1015 10 16 N/A
6:15 pm 18:15 Sunny 80 26.5 52 10.9 38 38 WSW 14 22 29.97 1015 10 16 N/A
6:35 pm 18:35 Sunny 77 25.1 51 10.4 40 40 W 12 19 29.97 1015 10 16 N/A
6:55 pm 18:55 Sunny 78 25.4 49 9.7 37 37 W 12 19 29.97 1015 10 16 N/A
7:15 pm 19:15 Sunny 77 25.1 50 10.2 39 39 W 12 19 29.97 1015 10 16 N/A
7:35 pm 19:35 Partly Cloudy 77 25.1 52 11.1 42 42 W 9 15 30.00 1016 10 16 N/A
7:55 pm 19:55 Partly Cloudy 77 25.1 50 10.2 39 39 W 8 13 30.00 1016 10 16 N/A
8:15 pm 20:15 Sunny 75 23.8 49 9.7 41 41 W 7 11 30.00 1016 10 16 N/A
8:35 pm 20:35 Sunny 74 23.6 51 10.5 44 44 W 6 9 30.00 1016 10 16 N/A
8:55 pm 20:55 Sunny 74 23.4 55 12.8 51 51 W 5 7 30.03 1017 10 16 N/A
9:15 pm 21:15 Clear 70 21.3 52 11.2 53 53 W 6 9 30.03 1017 10 16 N/A
9:35 pm 21:35 Clear 69 20.8 51 10.7 53 53 W 5 7 30.03 1017 10 16 N/A
9:55 pm 21:55 Clear 69 20.8 52 11.3 55 55 WNW 6 9 30.06 1018 10 16 N/A
10:15 pm 22:15 Clear 69 20.8 52 11.1 54 54 WNW 6 9 30.06 1018 10 16 N/A
10:35 pm 22:35 Clear 69 20.8 53 11.7 56 56 W 7 11 30.06 1018 10 16 N/A
10:55 pm 22:55 Clear 69 20.8 49 9.5 49 49 WNW 8 13 30.06 1018 10 16 N/A
11:15 pm 23:15 Clear 69 20.8 48 9.1 47 47 WNW 5 7 30.09 1019 10 16 N/A
11:35 pm 23:35 Clear 67 19.5 46 7.8 47 47 W 5 7 30.06 1018 10 16 N/A
11:55 pm 23:55 Clear 64 18 46 7.5 50 50 W 5 7 30.09 1019 10 16 N/A

Powered by AerisWeather